User: anonymous   Login
Location: ?
(35.4214°N, 139.3011°E)
Time: 09:29:33
(UTC+00:00)
Language:

Cosmos 1869 - Orbit

View from above orbital plane
View from above orbital plane
View from above satellite
View from above satellite

Ground track
Ground track

The orbit data is extracted from the following two-line orbital elements,

1 18214U 87062A   20269.56556741 +.00000460 +00000-0 +27159-4 0  9995
2 18214 082.5055 006.5331 0036764 116.3997 244.1013 15.08326793787576
Epoch (UTC): 25 September 2020 13:34:25
Eccentricity: 0.0036764
inclination: 82.5055°
perigee height: 516 km
apogee height: 567 km
right ascension of ascending node: 6.5331°
argument of perigee: 116.3997°
revolutions per day: 15.08326793
mean anomaly at epoch: 244.1013°
orbit number at epoch: 78757

The dashed part of the orbit path shows where the satellite is in the earth's shadow,  

DLR